WetterOnline ( http://www.wetteronline.at )

Wetter aktuell Stuttgart

Aktuelles Wetter: Schnarrenberg/Stuttgart (315m)

6-stündlich | Neueste Meldungen
Ortszeit Temperatur Wetter
Di, 22.01. 1:00 -4.6° C leicht bewölkt
Mo, 21.01. 19:00 -3.3° C bewölkt
Mo, 21.01. 13:00 -1.9° C wolkenlos
Mo, 21.01. 7:00 -6.0° C wolkenlos
Mo, 21.01. 1:00 -1.9° C bedeckt
So, 20.01. 19:00 -1.5° C bedeckt
So, 20.01. 13:00 -2.2° C bedeckt
So, 20.01. 7:00 -6.0° C bedeckt
Ortszeit Temperatur Wetter
Di, 22.01. 3:00 -5.5° C bewölkt
Di, 22.01. 2:50 -5.5° C bewölkt
Di, 22.01. 2:40 -5.8° C bewölkt
Di, 22.01. 2:30 -5.7° C bedeckt
Di, 22.01. 2:20 -5.7° C bedeckt
Di, 22.01. 2:10 -5.5° C bewölkt
Di, 22.01. 2:00 -5.3° C leicht bewölkt
Di, 22.01. 1:30 -5.5° C wolkenlos
Di, 22.01. 1:00 -4.6° C leicht bewölkt
Di, 22.01. 0:30 -4.4° C fast wolkenlos
Di, 22.01. 0:00 -4.1° C leicht bewölkt
Ortszeit Relative Feuchte Sichtweite
Di, 22.01. 1:00 91% 4.8 km
Mo, 21.01. 19:00 83% 9 km
Mo, 21.01. 13:00 72% 16 km
Mo, 21.01. 7:00 92% 5.0 km
Mo, 21.01. 1:00 82% 9 km
So, 20.01. 19:00 81% 9 km
So, 20.01. 13:00 72% 16 km
So, 20.01. 7:00 87% 9 km
Ortszeit Relative Feuchte Sichtweite
Di, 22.01. 3:00 93% 3.7 km
Di, 22.01. 2:50 93% -
Di, 22.01. 2:40 93% -
Di, 22.01. 2:30 93% 3.2 km
Di, 22.01. 2:20 93% -
Di, 22.01. 2:10 93% -
Di, 22.01. 2:00 94% 3.6 km
Di, 22.01. 1:30 95% 3.3 km
Di, 22.01. 1:00 91% 4.8 km
Di, 22.01. 0:30 93% 4.3 km
Di, 22.01. 0:00 90% 6 km
Ortszeit Niederschlagsmenge Niederschlagsart
Di, 22.01. 1:00 0.0 l/m2 in 6 Std. -
Mo, 21.01. 19:00 0.0 l/m2 in 12 Std. -
Mo, 21.01. 13:00 0.0 l/m2 in 6 Std. -
Mo, 21.01. 7:00 0.0 l/m2 in 12 Std. -
Mo, 21.01. 1:00 0.0 l/m2 in 6 Std. -
So, 20.01. 19:00 0.1 l/m2 in 12 Std. -
So, 20.01. 13:00 0.1 l/m2 in 6 Std. Schnee
So, 20.01. 7:00 0.0 l/m2 in 12 Std. -
Ortszeit Niederschlagsmenge Niederschlagsart
Di, 22.01. 3:00 0.0 l/m2 in 1 Std. -
Di, 22.01. 2:50 keine Meldung -
Di, 22.01. 2:40 keine Meldung -
Di, 22.01. 2:30 0.0 l/m2 in 1 Std. -
Di, 22.01. 2:20 keine Meldung -
Di, 22.01. 2:10 keine Meldung -
Di, 22.01. 2:00 0.0 l/m2 in 1 Std. -
Di, 22.01. 1:30 0.0 l/m2 in 1 Std. -
Di, 22.01. 1:00 0.0 l/m2 in 1 Std. -
Di, 22.01. 0:30 0.0 l/m2 in 1 Std. -
Di, 22.01. 0:00 0.0 l/m2 in 1 Std. -
Ortszeit Stärke Spitze Richtung
km/h Bft. km/h Grad Sektor
Di, 22.01. 1:00 4 1 11 80° O
Mo, 21.01. 19:00 6 1 17 300° NW
Mo, 21.01. 13:00 7 2 14 340° N
Mo, 21.01. 7:00 9 2 13 290° W
Mo, 21.01. 1:00 6 1 13 10° N
So, 20.01. 19:00 6 1 11 330° NW
So, 20.01. 13:00 4 1 18 80° O
So, 20.01. 7:00 7 2 18 130° SO
Ortszeit Stärke Spitze Richtung
km/h Bft. km/h Grad Sektor
Di, 22.01. 3:00 6 1 6 290° W
Di, 22.01. 2:50 6 1 - 290° W
Di, 22.01. 2:40 6 1 - 290° W
Di, 22.01. 2:30 4 1 7 290° W
Di, 22.01. 2:20 4 1 - 290° W
Di, 22.01. 2:10 4 1 - 330° NW
Di, 22.01. 2:00 6 1 7 50° NO
Di, 22.01. 1:30 6 1 7 60° NO
Di, 22.01. 1:00 4 1 4 80° O
Di, 22.01. 0:30 4 1 4 130° SO
Di, 22.01. 0:00 0 0 4 - -
Ortszeit Untergrenze Bedeckung Gattung
total tief tief mittel hoch
Di, 22.01. 1:00 540 m 2/8 2/8 - - -
Mo, 21.01. 19:00 540 m 7/8 7/8 - - -
Mo, 21.01. 13:00 - 0/8 0/8 - - -
Mo, 21.01. 7:00 - 0/8 0/8 - - -
Mo, 21.01. 1:00 870 m 8/8 8/8 - - -
So, 20.01. 19:00 960 m 8/8 8/8 - - -
So, 20.01. 13:00 1140 m 8/8 8/8 - - -
So, 20.01. 7:00 1500 m 8/8 8/8 - - -
Ortszeit Bedeckungsgrad in Achtel und Wolkenuntergrenze
Di, 22.01. 3:00 7(570m)
Di, 22.01. 2:50 7(570m)
Di, 22.01. 2:40 7(570m)
Di, 22.01. 2:30 8(570m)
Di, 22.01. 2:20 8(570m)
Di, 22.01. 2:10 7(570m)
Di, 22.01. 2:00 3(570m) 3(9000m)
Di, 22.01. 1:30 keine Wolken
Di, 22.01. 1:00 2(540m)
Di, 22.01. 0:30 1(570m)
Di, 22.01. 0:00 2(570m)
Ortszeit Luftdruck NN (hPa) Tendenz (hPa in 3 Std.)
Di, 22.01. 1:00 1020 - 1,4
Mo, 21.01. 19:00 1022 0,0
Mo, 21.01. 13:00 1023 - 0,3
Mo, 21.01. 7:00 1022 + 0,4
Mo, 21.01. 1:00 1021 + 0,9
So, 20.01. 19:00 1018 + 1,4
So, 20.01. 13:00 1017 + 0,7
So, 20.01. 7:00 1015 - 0,3
Ortszeit Luftdruck NN (hPa) Tendenz (hPa in 3 Std.)
Di, 22.01. 3:00 1020 - 1,6
Di, 22.01. 2:50 1020 keine Meldung
Di, 22.01. 2:40 1020 keine Meldung
Di, 22.01. 2:30 1020 - 1,7
Di, 22.01. 2:20 1020 keine Meldung
Di, 22.01. 2:10 1020 keine Meldung
Di, 22.01. 2:00 1020 - 1,8
Di, 22.01. 1:30 1020 - 1,7
Di, 22.01. 1:00 1020 - 1,4
Di, 22.01. 0:30 1021 - 1,0
Di, 22.01. 0:00 1021 - 0,6
Ortszeit Schneehöhe (cm)
Di, 22.01. 1:00 1
Mo, 21.01. 19:00 1
Mo, 21.01. 13:00 1
Mo, 21.01. 7:00 1
Mo, 21.01. 1:00 1
So, 20.01. 19:00 1
So, 20.01. 13:00 1
So, 20.01. 7:00 1
Ortszeit Schneehöhe (cm)
Di, 22.01. 3:00 1
Di, 22.01. 2:50 1
Di, 22.01. 2:40 1
Di, 22.01. 2:30 1
Di, 22.01. 2:20 1
Di, 22.01. 2:10 1
Di, 22.01. 2:00 1
Di, 22.01. 1:30 1
Di, 22.01. 1:00 1
Di, 22.01. 0:30 1
Di, 22.01. 0:00 1
Link zu dieser Seite / Seite empfehlen

Das Wetter in ...